Weather History for Lewistown, MT

Change the Weather History Date:

Wednesday, October 3, 2012

  Actual Average Record
Temperature  
Mean Temperature 39 °F 48 °F  
Max Temperature 45 °F 62 °F 87 °F (1943)
Min Temperature 32 °F 35 °F 17 °F (1999)
Degree Days  
Heating Degree Days 26 17  
Month to date heating degree days 42 49  
Since 1 July heating degree days 324 526  
Cooling Degree Days 0 0  
Month to date cooling degree days 0 0  
Year to date cooling degree days 314 210  
Moisture  
Dew Point 33 °F    
Average Humidity 85    
Maximum Humidity 100    
Minimum Humidity 70    
Precipitation  
Precipitation 0.34 in 0.05 in 1.07 in (1940)
Month to date precipitation 0.34 0.14  
Year to date precipitation 13.19 14.49  
Snow  
Snow 0.00 in - - ()
Snow Depth 0.00 in    
Sea Level Pressure  
Sea Level Pressure 30.28 in    
Wind  
Wind Speed 9 mph (NNW)    
Max Wind Speed 18 mph    
Max Gust Speed 23 mph    
Visibility 6 miles    
Events Fog , Rain , Snow    
T = Trace of Precipitation, MM = Missing Value Source: NWS Daily Summary

Daily Weather History Graph

Daily Weather History Graph

Search for Another Location

Airport:

Trip Planner

Search our weather history database for the weather conditions in past years. The results will help you decide how hot, cold, wet, or windy it might be!

Date:

Astronomy

Oct. 03, 2012 Rise Set
Actual Time 7:20 AM MDT 6:52 PM MDT
Civil Twilight 6:49 AM MDT 7:22 PM MDT
Nautical Twilight 6:14 AM MDT 7:57 PM MDT
Astronomical Twilight 5:38 AM MDT 8:33 PM MDT
Moon 8:30 PM MDT (10/3) 11:02 AM MDT (10/3)
Length of Visible Light 12h 33m
Length of Day
11h 32m
Waning Gibbous, 88% of the Moon is Illuminated
Oct 3
Waning Gibbous
Oct 8
Last Quarter
Oct 15
New
Oct 21
First Quarter
Oct 29
Full

Hourly Weather History & Observations

Time (MDT) Temp. Windchill Dew Point Humidity Pressure Visibility Wind Dir Wind Speed Gust Speed Precip Events Conditions
12:10 AM 44.6 °F 39.7 °F 35.6 °F 71% 29.94 in 10.0 mi East 9.2 mph - N/A   Mostly Cloudy
12:31 AM 44.6 °F 39.7 °F 35.6 °F 71% 29.94 in 10.0 mi East 9.2 mph - N/A   Mostly Cloudy
12:54 AM 45.0 °F 41.2 °F 36.0 °F 71% 29.96 in 10.0 mi ENE 6.9 mph - N/A   Overcast
1:54 AM 42.1 °F 37.7 °F 37.0 °F 82% 29.93 in 10.0 mi NNE 6.9 mph - 0.00 in Rain Light Rain
2:54 AM 39.9 °F 35.8 °F 39.0 °F 97% 29.97 in 8.0 mi SE 5.8 mph - 0.09 in Rain Light Rain
3:09 AM 39.2 °F - 37.4 °F 93% 30.03 in 6.0 mi Calm Calm - 0.02 in Rain Light Rain
3:26 AM 33.8 °F 23.9 °F 32.0 °F 93% 30.04 in 2.0 mi NNE 15.0 mph 23.0 mph 0.09 in Snow Light Snow
3:35 AM 33.8 °F 24.3 °F 32.0 °F 93% 29.99 in 3.0 mi East 13.8 mph 19.6 mph 0.10 in Snow Light Snow
3:54 AM 33.1 °F 25.5 °F 32.0 °F 96% 30.02 in 9.0 mi North 9.2 mph - 0.11 in Snow Light Snow
4:01 AM 33.8 °F 25.8 °F 32.0 °F 93% 30.05 in 9.0 mi North 10.4 mph 20.7 mph 0.00 in Snow Light Snow
4:41 AM 32.0 °F 22.5 °F 32.0 °F 100% 30.07 in 1.8 mi North 12.7 mph - 0.01 in Snow Light Snow
4:54 AM 32.0 °F 24.2 °F 32.0 °F 100% 30.06 in 2.0 mi North 9.2 mph - 0.01 in Snow Light Snow
5:09 AM 32.0 °F 24.8 °F 32.0 °F 100% 30.09 in 4.0 mi NNW 8.1 mph - 0.01 in Snow Light Snow
5:32 AM 32.0 °F 24.8 °F 32.0 °F 100% 30.11 in 2.0 mi NW 8.1 mph - 0.01 in Snow Light Snow
5:48 AM 32.0 °F 24.8 °F 30.2 °F 93% 30.11 in 1.8 mi NW 8.1 mph - 0.02 in Snow Light Snow
5:54 AM 32.0 °F 24.8 °F 30.9 °F 96% 30.12 in 2.0 mi NW 8.1 mph - 0.02 in Snow Light Snow
6:23 AM 32.0 °F 23.6 °F 32.0 °F 100% 30.13 in 4.0 mi WNW 10.4 mph - 0.00 in Snow Light Snow
6:54 AM 32.0 °F 22.5 °F 30.9 °F 96% 30.16 in 6.0 mi WNW 12.7 mph - 0.01 in Rain Light Freezing Rain
7:24 AM 32.0 °F 22.5 °F 30.2 °F 93% 30.16 in 7.0 mi WNW 12.7 mph - 0.00 in   Overcast
7:40 AM 32.0 °F 25.6 °F 32.0 °F 100% 30.17 in 8.0 mi NW 6.9 mph 16.1 mph 0.00 in   Overcast
7:46 AM 32.0 °F 23.6 °F 32.0 °F 100% 30.17 in 6.0 mi WNW 10.4 mph - 0.00 in   Overcast
7:54 AM 32.0 °F 23.6 °F 32.0 °F 100% 30.19 in 3.0 mi WNW 10.4 mph - 0.00 in Snow Light Snow
8:01 AM 32.0 °F 24.2 °F 32.0 °F 100% 30.18 in 1.8 mi WNW 9.2 mph - 0.00 in Snow Light Snow
8:38 AM 32.0 °F 23.0 °F 32.0 °F 100% 30.21 in 1.8 mi WNW 11.5 mph - 0.01 in Snow Light Snow
8:48 AM 32.0 °F 23.0 °F 32.0 °F 100% 30.21 in 0.8 mi WNW 11.5 mph - 0.01 in Snow Light Snow
8:54 AM 32.0 °F 23.0 °F 32.0 °F 100% 30.24 in 0.5 mi WNW 11.5 mph - 0.01 in Fog , Snow Light Snow
9:03 AM 32.0 °F 22.1 °F 32.0 °F 100% 30.21 in 2.0 mi NW 13.8 mph 20.7 mph 0.00 in Snow Light Snow
9:11 AM 32.0 °F 22.5 °F 32.0 °F 100% 30.22 in 5.0 mi NW 12.7 mph 20.7 mph 0.00 in Snow Light Snow
9:50 AM 33.8 °F 25.3 °F 32.0 °F 93% 30.25 in 4.0 mi NW 11.5 mph - 0.00 in Snow Light Snow
9:54 AM 32.0 °F 23.0 °F 32.0 °F 100% 30.30 in 4.0 mi NW 11.5 mph - 0.00 in Snow Light Snow
10:54 AM 34.0 °F 24.6 °F 33.1 °F 96% 30.33 in 8.0 mi NW 13.8 mph 18.4 mph 0.01 in Snow Light Snow
11:54 AM 36.0 °F 28.0 °F 34.0 °F 93% 30.35 in 10.0 mi NW 11.5 mph - 0.00 in Rain Light Rain
12:01 PM 35.6 °F 27.1 °F 35.6 °F 100% 30.31 in 10.0 mi NW 12.7 mph 17.3 mph 0.00 in Rain Light Rain
12:08 PM 35.6 °F 28.6 °F 33.8 °F 93% 30.31 in 10.0 mi NW 9.2 mph - 0.00 in Snow Light Snow
12:54 PM 37.0 °F 28.5 °F 35.1 °F 93% 30.37 in 10.0 mi North 13.8 mph - 0.01 in Rain Light Rain
1:01 PM 37.4 °F 28.9 °F 35.6 °F 93% 30.33 in 10.0 mi North 13.8 mph - 0.00 in Rain Light Rain
2:38 PM 37.4 °F 29.8 °F 35.6 °F 93% 30.35 in 10.0 mi NNW 11.5 mph 18.4 mph 0.00 in Rain Light Rain
2:49 PM 37.4 °F 29.8 °F 33.8 °F 87% 30.36 in 10.0 mi North 11.5 mph 19.6 mph 0.00 in Rain Light Rain
2:54 PM 37.9 °F 30.9 °F 35.1 °F 89% 30.42 in 10.0 mi NNW 10.4 mph - 0.00 in Rain Light Rain
3:09 PM 35.6 °F 27.5 °F 33.8 °F 93% 30.37 in 10.0 mi North 11.5 mph - 0.00 in   Overcast
3:20 PM 35.6 °F 27.5 °F 33.8 °F 93% 30.38 in 5.0 mi North 11.5 mph - 0.01 in Snow Light Snow
3:29 PM 33.8 °F 27.0 °F 33.8 °F 100% 30.38 in 1.8 mi North 8.1 mph - 0.02 in Snow Light Snow
3:43 PM 33.8 °F 29.6 °F 32.0 °F 93% 30.39 in 1.2 mi NNW 4.6 mph - 0.03 in Snow Light Snow
3:48 PM 33.8 °F 29.6 °F 32.0 °F 93% 30.39 in 3.0 mi WNW 4.6 mph - 0.03 in Snow Light Snow
3:54 PM 34.0 °F 29.8 °F 33.1 °F 96% 30.47 in 9.0 mi WNW 4.6 mph - 0.03 in   Overcast
4:06 PM 35.6 °F 29.2 °F 33.8 °F 93% 30.39 in 8.0 mi NNE 8.1 mph - 0.00 in Rain Light Rain
4:18 PM 33.8 °F 26.4 °F 32.0 °F 93% 30.40 in 2.5 mi NNE 9.2 mph - 0.01 in Snow Light Snow
4:25 PM 33.8 °F 25.8 °F 32.0 °F 93% 30.40 in 1.5 mi NNE 10.4 mph - 0.02 in Snow Light Snow
4:32 PM 32.0 °F 24.2 °F 30.2 °F 93% 30.40 in 0.2 mi NNE 9.2 mph - 0.04 in Fog , Snow Snow
4:39 PM 32.0 °F 26.4 °F 32.0 °F 100% 30.40 in 1.0 mi NNE 5.8 mph - 0.04 in Snow Light Snow
4:45 PM 33.8 °F 30.8 °F 32.0 °F 93% 30.41 in 3.0 mi North 3.5 mph - 0.04 in Snow Light Snow
4:54 PM 34.0 °F 31.0 °F 33.1 °F 96% 30.50 in 8.0 mi Variable 3.5 mph - 0.04 in   Overcast
5:17 PM 35.6 °F 31.7 °F 33.8 °F 93% 30.41 in 10.0 mi West 4.6 mph - N/A   Mostly Cloudy
5:37 PM 35.6 °F 32.8 °F 33.8 °F 93% 30.42 in 10.0 mi NNE 3.5 mph 16.1 mph N/A   Mostly Cloudy
5:54 PM 35.1 °F 31.0 °F 33.1 °F 92% 30.51 in 10.0 mi NNW 4.6 mph - N/A   Overcast
6:16 PM 35.6 °F 28.6 °F 33.8 °F 93% 30.43 in 10.0 mi NW 9.2 mph - N/A   Mostly Cloudy
6:27 PM 35.6 °F 29.2 °F 33.8 °F 93% 30.43 in 10.0 mi North 8.1 mph - N/A   Mostly Cloudy
6:54 PM 35.1 °F 27.9 °F 33.1 °F 92% 30.52 in 10.0 mi NW 9.2 mph - N/A   Overcast
7:54 PM 35.1 °F 28.6 °F 32.0 °F 89% 30.53 in 10.0 mi NW 8.1 mph - N/A   Overcast
8:11 PM 35.6 °F 29.9 °F 32.0 °F 87% 30.45 in 10.0 mi NNW 6.9 mph - N/A   Mostly Cloudy
8:54 PM 34.0 °F 28.8 °F 32.0 °F 92% 30.55 in 10.0 mi NNW 5.8 mph - N/A   Overcast
9:54 PM 34.0 °F 28.8 °F 33.1 °F 96% 30.54 in 10.0 mi NW 5.8 mph - N/A   Overcast
10:39 PM 33.8 °F 28.6 °F 32.0 °F 93% 30.45 in 10.0 mi West 5.8 mph - N/A   Overcast
10:54 PM 34.0 °F 28.0 °F 32.0 °F 92% 30.53 in 10.0 mi West 6.9 mph - N/A   Overcast
11:22 PM 33.8 °F 27.7 °F 32.0 °F 93% 30.44 in 10.0 mi West 6.9 mph - N/A   Overcast
11:54 PM 34.0 °F 27.2 °F 32.0 °F 92% 30.52 in 10.0 mi WNW 8.1 mph - 0.00 in   Overcast